User: anonymous   Login
Location: Hradec Kralove
(50.2170°N, 15.8330°E)
Time: 00:40:30
(UTC+02:00)
Language:

Hubble Space Telescope - Orbit

View from above orbital plane
View from above orbital plane
View from above satellite
View from above satellite

Ground track
Ground track

The orbit data is extracted from the following two-line orbital elements,

1 20580U 90037B   24151.29899707  .00005735  00000-0  26884-3 0  9999
2 20580  28.4679 104.9575 0002605 198.6892 161.3605 15.17511441674313
Epoch (UTC): 30 May 2024 07:10:33
Eccentricity: 0.0002605
inclination: 28.4679°
perigee height: 511 km
apogee height: 515 km
right ascension of ascending node: 104.9575°
argument of perigee: 198.6892°
revolutions per day: 15.17511441
mean anomaly at epoch: 161.3605°
orbit number at epoch: 67431

The dashed part of the orbit path shows where the satellite is in the earth's shadow,  

DLR